ASIASAT 7

Last updated on Sat Dec 13 2025 00:02:47 GMT+0000 (Coordinated Universal Time)

1 37933U 11069A 25346.29707927 -.00000324 00000+0 00000+0 0 9993 2 37933 0.0213 262.1695 0001429 335.1078 56.4257 1.00271126 42989
UTC large
Height (km)
Speed (km/s)
/
Latitude / Longitude
Inclination (degrees)
Orbital Period (minutes)
Azimuth
Elevation
Range (km)
Doppler Factor

Next 0 passes for location: London (51.5072 / 0.1276)

Sorry there are no passes over London.